DW1894 Briancon FR current weather conditions

sailwx.info

Wind from 144 at 0 knots

Air temperature 19.4° C
Dewpoint 12.0° C

Last reported at 2019-Sep-20 19:00 UTC.
Time now 2019-Sep-20 20:14 UTC

Location: N 44°54' E 006°38'.
View on Google Maps.

See reports from other nearby stations

  
Tides and Currents Weather Stations Pressure Air Temp Water Temp Dewpoint Dewpoint Depression Visibility Wind Speed Wind Dir Waves Ship Positions
date/time (UTC)wind fromknots sea level pressurealtimeterstation pressurevisibilityair tempwater tempwave heightnotes
2019-Sep-20 19:00 144 0 19.4
2019-Sep-20 18:50 169 1 19.4
2019-Sep-20 18:40 189 2 19.4
2019-Sep-20 18:30 177 3 20.0
2019-Sep-20 18:20 173 3 20.0
2019-Sep-20 18:10 158 3 20.0
2019-Sep-20 18:00 151 3 20.6
2019-Sep-20 17:50 153 3 20.6
2019-Sep-20 17:40 168 3 20.6
2019-Sep-20 17:30 151 4 21.1
2019-Sep-20 17:15 098 3 21.1
2019-Sep-20 17:00 160 2 21.1
2019-Sep-20 16:45 169 2 21.7
2019-Sep-20 16:30 142 1 22.2
2019-Sep-20 16:15 180 2 22.8
2019-Sep-20 16:01 172 2 23.3
2019-Sep-20 15:45 139 2 23.9
2019-Sep-20 15:30 108 3 23.9
2019-Sep-20 15:15 175 4 23.9
2019-Sep-20 15:00 169 3 24.4
2019-Sep-20 14:45 189 4 24.4
2019-Sep-20 14:30 160 3 24.4
2019-Sep-20 14:15 179 4 24.4
2019-Sep-20 14:00 148 3 25.0
2019-Sep-20 13:45 172 2 25.0
2019-Sep-20 13:30 113 3 25.0
2019-Sep-20 13:15 113 1 25.6
2019-Sep-20 13:00 175 2 24.4
2019-Sep-20 12:45 108 1 25.0
2019-Sep-20 12:30 142 3 24.4
2019-Sep-20 12:15 063 2 24.4
2019-Sep-20 12:00 121 0 24.4
2019-Sep-20 11:50 123 0 24.4
2019-Sep-20 11:40 135 1 23.9
2019-Sep-20 11:30 146 1 23.9
2019-Sep-20 11:20 143 1 23.3
2019-Sep-20 11:15 143 1 23.3
2019-Sep-20 11:10 133 0 23.3
2019-Sep-20 11:00 144 22.8
2019-Sep-20 10:50 147 0 22.8
2019-Sep-20 10:46 146 0 22.2
2019-Sep-20 10:31 145 0 21.7
2019-Sep-20 10:16 156 1 21.1
2019-Sep-20 10:00 270 0 21.1
2019-Sep-20 09:46 309 21.1
2019-Sep-20 09:30 302 21.1
2019-Sep-20 09:15 302 20.6
2019-Sep-20 09:00 300 19.4
2019-Sep-20 08:46 300 19.4
2019-Sep-20 08:30 300 18.9
2019-Sep-20 08:15 300 18.3
2019-Sep-20 08:00 299 18.3
2019-Sep-20 07:45 299 17.8
2019-Sep-20 07:30 299 17.2
2019-Sep-20 07:15 299 16.1
2019-Sep-20 07:02 299 15.0
2019-Sep-20 06:46 299 14.4
2019-Sep-20 06:32 299 13.3
2019-Sep-20 06:17 299 12.8
2019-Sep-20 06:01 299 12.8
2019-Sep-20 05:46 299 12.8
2019-Sep-20 05:31 299 12.8
2019-Sep-20 05:16 299 13.3
2019-Sep-20 05:01 299 13.3
2019-Sep-20 04:46 299 13.3
2019-Sep-20 04:31 299 13.3
2019-Sep-20 04:16 299 13.3
2019-Sep-20 04:01 299 13.3
2019-Sep-20 03:46 299 13.3
2019-Sep-20 03:31 299 13.3
2019-Sep-20 03:16 299 13.9
2019-Sep-20 03:01 299 14.4
2019-Sep-20 02:45 299 14.4
2019-Sep-20 02:31 299 14.4
2019-Sep-20 02:15 299 14.4
2019-Sep-20 02:00 299 13.9
2019-Sep-20 01:46 299 13.9
2019-Sep-20 01:31 299 13.9
2019-Sep-20 01:16 299 13.9
2019-Sep-20 01:01 299 13.3
2019-Sep-20 00:45 299 13.3
2019-Sep-20 00:32 299 13.3
2019-Sep-20 00:16 299 13.3
2019-Sep-20 00:01 299 13.3
2019-Sep-19 23:46 299 13.3
2019-Sep-19 23:30 299 13.3
2019-Sep-19 23:16 299 13.9
2019-Sep-19 23:00 299 13.9
2019-Sep-19 22:45 299 14.4
2019-Sep-19 22:30 299 14.4
2019-Sep-19 22:15 299 14.4
2019-Sep-19 22:00 299 13.9
2019-Sep-19 21:45 299 13.9
2019-Sep-19 21:30 299 13.9
2019-Sep-19 21:15 299 13.9
2019-Sep-19 21:00 299 13.9
2019-Sep-19 20:45 299 14.4
2019-Sep-19 20:30 299 14.4
2019-Sep-19 20:15 299 15.0
2019-Sep-19 20:10 299 15.0
2019-Sep-19 20:00 299 15.6
2019-Sep-19 19:50 299 15.6
2019-Sep-19 19:40 299 16.1
2019-Sep-19 19:30 299 16.1
2019-Sep-19 19:20 299 16.7
2019-Sep-19 19:15 299 16.1
2019-Sep-19 19:10 299 16.7
2019-Sep-19 19:00 247 16.7
2019-Sep-19 18:50 246 17.2
2019-Sep-19 18:40 245 17.2
2019-Sep-19 18:30 245 17.8
2019-Sep-19 18:20 245 17.8
2019-Sep-19 18:15 245 17.2
2019-Sep-19 18:10 245 0 17.8
2019-Sep-19 18:00 152 17.8
2019-Sep-19 17:50 152 3 17.8
2019-Sep-19 17:40 171 5 18.9
2019-Sep-19 17:31 138 4 21.7
2019-Sep-19 17:16 317 22.2
2019-Sep-19 17:01 317 22.2
2019-Sep-19 16:46 317 22.8
2019-Sep-19 16:31 317 22.8
2019-Sep-19 16:16 317 0 23.3
2019-Sep-19 16:00 005 23.9
2019-Sep-19 15:46 079 0 25.0
2019-Sep-19 15:31 123 1 26.1
2019-Sep-19 15:16 172 2 26.1
2019-Sep-19 15:01 158 2 26.7
2019-Sep-19 14:46 110 1 26.7
2019-Sep-19 14:31 120 1 26.7
2019-Sep-19 14:16 078 1 26.7
2019-Sep-19 14:01 149 1 26.7
2019-Sep-19 13:46 143 2 26.1
2019-Sep-19 13:31 135 1 26.1
2019-Sep-19 13:16 106 2 26.7
2019-Sep-19 13:00 094 1 26.1
2019-Sep-19 12:45 177 1 26.1
2019-Sep-19 12:31 119 1 25.6
2019-Sep-19 12:15 135 2 25.0
2019-Sep-19 12:00 150 1 25.6
2019-Sep-19 11:50 161 1 25.0
2019-Sep-19 11:45 158 1 25.0
2019-Sep-19 11:40 154 1 25.0
2019-Sep-19 11:30 150 0 25.0
2019-Sep-19 11:20 148 0 25.0
2019-Sep-19 11:15 147 0 24.4
2019-Sep-19 11:10 131 0 25.0
2019-Sep-19 11:00 121 0 24.4
2019-Sep-19 10:50 183 0 23.9
2019-Sep-19 10:45 179 0 23.3
2019-Sep-19 10:30 360 0 23.3
2019-Sep-19 10:15 355 22.8
2019-Sep-19 10:00 011 22.8
2019-Sep-19 09:47 013 22.2
2019-Sep-19 09:32 011 21.7
2019-Sep-19 09:16 014 21.1
2019-Sep-19 09:02 013 20.6
2019-Sep-19 08:47 177 19.4
2019-Sep-19 08:32 177 18.9
2019-Sep-19 08:16 177 18.3
2019-Sep-19 08:01 177 17.8
2019-Sep-19 07:46 177 17.2
2019-Sep-19 07:31 177 16.7
2019-Sep-19 07:16 177 16.1
2019-Sep-19 07:00 177 15.6
2019-Sep-19 06:45 177 14.4
2019-Sep-19 06:30 177 12.8
2019-Sep-19 06:15 177 12.8
2019-Sep-19 06:00 177 12.2
2019-Sep-19 05:45 177 12.2
2019-Sep-19 05:30 177 11.7
2019-Sep-19 05:15 177 11.7
2019-Sep-19 05:00 177 11.7
2019-Sep-19 04:45 177 11.7
2019-Sep-19 04:30 177 11.7
2019-Sep-19 04:15 177 11.7
2019-Sep-19 04:00 177 12.2
2019-Sep-19 03:45 177 12.2
2019-Sep-19 03:30 177 12.2
2019-Sep-19 03:15 177 12.8
2019-Sep-19 03:00 177 12.8
2019-Sep-19 02:45 177 12.8
2019-Sep-19 02:30 177 12.8
2019-Sep-19 02:15 177 12.8
2019-Sep-19 02:01 177 13.3
2019-Sep-19 01:46 177 13.3
2019-Sep-19 01:32 177 13.9
2019-Sep-19 01:17 177 13.9
2019-Sep-19 01:02 177 13.9
2019-Sep-19 00:46 177 13.9
2019-Sep-19 00:32 177 13.9
2019-Sep-19 00:16 177 14.4
2019-Sep-19 00:01 177 14.4
2019-Sep-18 23:47 177 14.4
2019-Sep-18 23:32 177 15.0
2019-Sep-18 23:16 177 15.0
2019-Sep-18 23:02 177 0 15.6
2019-Sep-18 22:46 177 0 15.0
2019-Sep-18 22:31 307 15.0
2019-Sep-18 22:16 307 15.6
2019-Sep-18 22:01 307 15.6
2019-Sep-18 21:46 307 16.1
2019-Sep-18 21:32 307 16.1
2019-Sep-18 21:16 307 16.7
2019-Sep-18 21:00 307 16.7
2019-Sep-18 20:45 307 17.2
2019-Sep-18 20:31 307 17.2
2019-Sep-18 20:15 307 17.8
2019-Sep-18 20:00 307 17.8